| time (UTC) | temp F | wind direction | speed MPH | gust MPH | rain 1hr in | rain 24hr in | rain mn in | humidity % | barometer mb |
| 20260905231602 | 81 | 103 | 1.0 | 7.0 | 0.00 | 0.00 | 0.00 | 65 | 1011.6 |
| 20260905230100 | 81 | 111 | 2.0 | 7.0 | 0.00 | 0.00 | 0.00 | 66 | 1011.7 |
| 20260905224610 | 82 | 168 | 2.0 | 6.0 | 0.00 | 0.00 | 0.00 | 65 | 1011.8 |
| 20260905223102 | 82 | 138 | 1.0 | 7.0 | 0.00 | 0.00 | 0.00 | 65 | 1011.9 |
| 20260905221603 | 83 | 125 | 2.0 | 8.0 | 0.00 | 0.00 | 0.00 | 63 | 1012.0 |
| 20260905220108 | 83 | 115 | 1.0 | 6.0 | 0.00 | 0.00 | 0.00 | 64 | 1012.2 |
| 20260905214611 | 83 | 101 | 2.0 | 10.0 | 0.00 | 0.00 | 0.00 | 64 | 1012.4 |
| 20260905213117 | 82 | 0 | 1.0 | 9.0 | 0.00 | 0.00 | 0.00 | 66 | 1012.5 |
| 20260905211603 | 83 | 160 | 1.0 | 7.0 | 0.00 | 0.00 | 0.00 | 66 | 1012.6 |
| 20260905210101 | 82 | 105 | 1.0 | 5.0 | 0.00 | 0.00 | 0.00 | 67 | 1012.5 |
| 20260905204559 | 81 | 147 | 1.0 | 8.0 | 0.00 | 0.00 | 0.00 | 68 | 1012.7 |
| 20260905203052 | 81 | 162 | 1.0 | 6.0 | 0.00 | 0.00 | 0.00 | 68 | 1013.0 |
| 20260905201607 | 81 | 117 | 1.0 | 7.0 | 0.00 | 0.00 | 0.00 | 70 | 1013.2 |
| 20260905194559 | 81 | 119 | 1.0 | 6.0 | 0.00 | 0.00 | 0.00 | 67 | 1013.6 |
| 20260905193101 | 81 | 142 | 1.0 | 8.0 | 0.00 | 0.00 | 0.00 | 67 | 1013.7 |
| 20260905191613 | 80 | 216 | 2.0 | 8.0 | 0.00 | 0.00 | 0.00 | 68 | 1013.7 |
| 20260905184610 | 80 | 96 | 1.0 | 5.0 | 0.00 | 0.00 | 0.00 | 68 | 1014.0 |
| 20260905183052 | 81 | 77 | 1.0 | 4.0 | 0.00 | 0.00 | 0.00 | 67 | 1014.3 |
| 20260905181606 | 80 | 120 | 2.0 | 7.0 | 0.00 | 0.00 | 0.00 | 68 | 1014.3 |
| 20260905180123 | 80 | 98 | 1.0 | 8.0 | 0.00 | 0.00 | 0.00 | 63 | 1014.4 |
| 20260905174617 | 78 | 0 | 1.0 | 5.0 | 0.00 | 0.00 | 0.00 | 61 | 1014.3 |
| 20260905173112 | 77 | 343 | 1.0 | 8.0 | 0.00 | 0.00 | 0.00 | 64 | 1014.2 |
| 20260905171609 | 76 | 276 | 1.0 | 6.0 | 0.00 | 0.00 | 0.00 | 70 | 1014.2 |
| 20260905170121 | 75 | 344 | 2.0 | 5.0 | 0.00 | 0.00 | 0.00 | 70 | 1014.3 |
| 20260905164611 | 74 | 292 | 2.0 | 6.0 | 0.00 | 0.00 | 0.00 | 72 | 1014.2 |
| 20260905163109 | 73 | 304 | 1.0 | 4.0 | 0.00 | 0.00 | 0.00 | 74 | 1014.1 |
| 20260905161600 | 72 | 238 | 1.0 | 4.0 | 0.00 | 0.00 | 0.00 | 79 | 1014.0 |
| 20260905160110 | 71 | 224 | 1.0 | 3.0 | 0.00 | 0.00 | 0.00 | 82 | 1014.0 |
| 20260905154605 | 70 | 217 | 0.0 | 4.0 | 0.00 | 0.00 | 0.00 | 84 | 1014.0 |
| 20260905153102 | 70 | 202 | 2.0 | 4.0 | 0.00 | 0.00 | 0.00 | 84 | 1013.8 |
| 20260905151558 | 69 | 0 | 0.0 | 5.0 | 0.00 | 0.00 | 0.00 | 85 | 1013.8 |
| 20260905150105 | 68 | 140 | 0.0 | 3.0 | 0.00 | 0.00 | 0.00 | 86 | 1013.7 |
| 20260905144601 | 67 | 0 | 0.0 | 2.0 | 0.00 | 0.00 | 0.00 | 88 | 1013.6 |
| 20260905143100 | 66 | 0 | 0.0 | 2.0 | 0.00 | 0.00 | 0.00 | 90 | 1013.6 |
| 20260905141612 | 65 | 119 | 1.0 | 3.0 | 0.00 | 0.00 | 0.00 | 92 | 1013.5 |
| 20260905140107 | 64 | 118 | 0.0 | 2.0 | 0.00 | 0.00 | 0.00 | 92 | 1013.3 |
| 20260905134610 | 63 | 0 | 0.0 | 1.0 | 0.00 | 0.00 | 0.00 | 92 | 1013.1 |
| 20260905133100 | 63 | 0 | 0.0 | 1.0 | 0.00 | 0.00 | 0.00 | 92 | 1013.1 |
| 20260905131559 | 64 | 0 | 0.0 | 0.0 | 0.00 | 0.00 | 0.00 | 92 | 1012.9 |
| 20260905130113 | 64 | 0 | 0.0 | 0.0 | 0.00 | 0.00 | 0.00 | 92 | 1012.8 |
| 20260905124601 | 64 | 0 | 0.0 | 0.0 | 0.00 | 0.00 | 0.00 | 91 | 1012.8 |
| 20260905123101 | 64 | 0 | 0.0 | 1.0 | 0.00 | 0.00 | 0.00 | 91 | 1012.7 |
| 20260905121602 | 64 | 0 | 0.0 | 1.0 | 0.00 | 0.00 | 0.00 | 91 | 1012.7 |
| 20260905120111 | 64 | 0 | 0.0 | 2.0 | 0.00 | 0.00 | 0.00 | 91 | 1012.8 |
| 20260905114637 | 64 | 0 | 0.0 | 1.0 | 0.00 | 0.00 | 0.00 | 90 | 1012.7 |
| 20260905113102 | 64 | 0 | 0.0 | 1.0 | 0.00 | 0.00 | 0.00 | 90 | 1012.7 |
| 20260905111601 | 64 | 0 | 0.0 | 0.0 | 0.00 | 0.00 | 0.00 | 90 | 1012.8 |
| 20260905110108 | 64 | 0 | 0.0 | 0.0 | 0.00 | 0.00 | 0.00 | 90 | 1012.9 |
| 20260905104605 | 65 | 0 | 0.0 | 1.0 | 0.00 | 0.00 | 0.00 | 90 | 1012.9 |
| 20260905103109 | 65 | 0 | 0.0 | 0.0 | 0.00 | 0.00 | 0.00 | 90 | 1012.9 |
| 20260905101600 | 65 | 0 | 0.0 | 0.0 | 0.00 | 0.00 | 0.00 | 89 | 1012.9 |
| 20260905100120 | 65 | 0 | 0.0 | 0.0 | 0.00 | 0.00 | 0.00 | 89 | 1013.0 |
| 20260905094624 | 66 | 0 | 0.0 | 0.0 | 0.00 | 0.00 | 0.00 | 88 | 1013.0 |
| 20260905093102 | 66 | 0 | 0.0 | 0.0 | 0.00 | 0.00 | 0.00 | 88 | 1013.0 |
| 20260905091615 | 67 | 0 | 0.0 | 0.0 | 0.00 | 0.00 | 0.00 | 88 | 1013.1 |
| 20260905090057 | 67 | 0 | 0.0 | 1.0 | 0.00 | 0.00 | 0.00 | 87 | 1013.1 |
| 20260905084603 | 67 | 0 | 0.0 | 1.0 | 0.00 | 0.00 | 0.00 | 88 | 1013.1 |
| 20260905083102 | 67 | 0 | 0.0 | 2.0 | 0.00 | 0.00 | 0.00 | 87 | 1013.1 |
| 20260905081607 | 68 | 0 | 0.0 | 2.0 | 0.00 | 0.00 | 0.00 | 87 | 1013.3 |
| 20260905080101 | 68 | 0 | 0.0 | 2.0 | 0.00 | 0.00 | 0.00 | 87 | 1013.3 |
| 20260905074605 | 68 | 117 | 1.0 | 3.0 | 0.00 | 0.00 | 0.00 | 88 | 1013.3 |
| 20260905073105 | 68 | 119 | 0.0 | 2.0 | 0.00 | 0.00 | 0.00 | 88 | 1013.2 |
| 20260905071602 | 68 | 0 | 0.0 | 2.0 | 0.00 | 0.00 | 0.00 | 88 | 1013.1 |
| 20260905070104 | 68 | 0 | 0.0 | 2.0 | 0.00 | 0.00 | 0.00 | 88 | 1013.0 |
| 20260905064615 | 68 | 120 | 0.0 | 3.0 | 0.00 | 0.00 | 0.00 | 88 | 1013.0 |
| 20260905063059 | 68 | 0 | 0.0 | 2.0 | 0.00 | 0.00 | 0.00 | 88 | 1013.0 |
| 20260905061619 | 68 | 0 | 0.0 | 1.0 | 0.00 | 0.00 | 0.00 | 88 | 1013.1 |
| 20260905060104 | 69 | 129 | 0.0 | 2.0 | 0.00 | 0.00 | 0.00 | 88 | 1012.9 |
| 20260905054604 | 69 | 0 | 0.0 | 2.0 | 0.00 | 0.00 | 0.00 | 88 | 1012.8 |
| 20260905053055 | 69 | 0 | 0.0 | 3.0 | 0.00 | 0.00 | 0.00 | 88 | 1013.0 |
| 20260905051611 | 69 | 143 | 0.0 | 2.0 | 0.00 | 0.00 | 0.00 | 88 | 1013.1 |
| 20260905050107 | 69 | 0 | 0.0 | 3.0 | 0.00 | 0.00 | 0.00 | 88 | 1012.9 |
| 20260905044602 | 70 | 142 | 1.0 | 3.0 | 0.00 | 0.00 | 0.00 | 88 | 1013.0 |
| 20260905043055 | 70 | 0 | 0.0 | 3.0 | 0.00 | 0.00 | 0.00 | 87 | 1012.9 |
| 20260905041604 | 70 | 108 | 0.0 | 6.0 | 0.00 | 0.00 | 0.00 | 87 | 1012.7 |
| 20260905040103 | 70 | 131 | 0.0 | 5.0 | 0.00 | 0.00 | 0.00 | 86 | 1012.5 |
| 20260905034609 | 70 | 97 | 0.0 | 4.0 | 0.00 | 0.00 | 0.00 | 86 | 1012.3 |
| 20260905033111 | 70 | 142 | 1.0 | 5.0 | 0.00 | 0.00 | 0.00 | 85 | 1012.2 |
| 20260905031616 | 70 | 148 | 1.0 | 4.0 | 0.00 | 0.00 | 0.00 | 85 | 1012.2 |
| 20260905030055 | 71 | 137 | 1.0 | 7.0 | 0.00 | 0.00 | 0.00 | 84 | 1012.0 |
| 20260905024602 | 71 | 0 | 1.0 | 7.0 | 0.00 | 0.00 | 0.00 | 84 | 1011.8 |
| 20260905023137 | 71 | 159 | 0.0 | 10.0 | 0.00 | 0.00 | 0.00 | 83 | 1011.9 |
| 20260905021602 | 71 | 150 | 1.0 | 9.0 | 0.00 | 0.00 | 0.00 | 82 | 1012.0 |
| 20260905020055 | 72 | 129 | 1.0 | 8.0 | 0.00 | 0.00 | 0.00 | 81 | 1011.9 |
| 20260905014616 | 73 | 0 | 0.0 | 8.0 | 0.00 | 0.00 | 0.00 | 80 | 1012.1 |
| 20260905013057 | 74 | 166 | 1.0 | 7.0 | 0.00 | 0.00 | 0.00 | 77 | 1012.0 |
| 20260905011607 | 75 | 0 | 2.0 | 9.0 | 0.00 | 0.00 | 0.00 | 76 | 1012.2 |
| 20260905010107 | 75 | 147 | 2.0 | 8.0 | 0.00 | 0.00 | 0.00 | 75 | 1012.2 |
| 20260905004601 | 76 | 121 | 2.0 | 11.0 | 0.00 | 0.00 | 0.00 | 74 | 1012.2 |
| 20260905003058 | 76 | 163 | 1.0 | 7.0 | 0.00 | 0.00 | 0.00 | 73 | 1012.2 |
| 20260905001610 | 76 | 0 | 1.0 | 8.0 | 0.00 | 0.00 | 0.00 | 73 | 1012.2 |
| 20260905000119 | 77 | 173 | 1.0 | 8.0 | 0.00 | 0.00 | 0.00 | 73 | 1012.3 |
| 20260904234601 | 77 | 156 | 1.0 | 9.0 | 0.00 | 0.00 | 0.00 | 73 | 1012.2 |
| 20260904233100 | 77 | 135 | 4.0 | 11.0 | 0.00 | 0.00 | 0.00 | 72 | 1012.1 |